www.pogodaiklimat.ru

ПОГОДА в Quelimane

  • Прогноз погоды в Quelimane
  • Монитор погоды в Quelimane
  • Климат города

АРХИВ ПОГОДЫ в Quelimane

Время (UTC), дата Ветер
(напр.,м/с)
 
Видим.   Явления Облачность Т
(С)
Тd
(С)
f
(%)
Тe
(С)
Тes
(С)
Комфортность P
(гПа)
Po
(гПа)
Тmin
(С)
Tmax
(С)
R
(мм)
S
(см)
03 9.01 штиль 0 30 км 8/4 600 м
[Cu med, cong Ac trans Cs]
+25.0 +23.8 93 +34 +34 очень
душно
1007.7 1008.0
06 9.01 штиль 0 30 км 8/1 600 м
[Cu med, cong Cs]
+28.6 +24.0 76 +40 +49 очень
душно
1009.6 1010.0 +25.0 16
09 9.01 ЮВ 2 30 км 6/5 600 м
[Cu med, cong Ac trans Cs]
+32.8 +24.6 62 +46 +56 опасность
перегрева
1008.9 1009.0
12 9.01 Ю 2 30 км 5/5 600 м
[Cb cap Ac trans Ci ing]
+33.4 +24.0 58 +45 +53 опасность
перегрева
1005.9 1006.0
15 9.01 Ю 2 30 км 5/5 600 м
[Cb cap Ac trans Ci ing]
+33.4 +24.0 58 +45 +46 опасность
перегрева
1005.9 1006.0
18 9.01 В 2 30 км 6/5 600 м
[Cb cap Ac trans Ci ing]
+27.8 +24.4 82 +39 +39 очень
душно
1008.5 1009.0 +33.2
21 9.01 штиль 0 30 км 4/4 600 м
[Cu med, cong Ac trans Ci fib]
+27.0 +25.0 89 +39 +39 очень
душно
1008.8 1009.0
00 10.01 штиль 0 30 км 5/5 600 м
[Cu med, cong Ac trans]
+26.0 +24.9 94 +37 +37 очень
душно
1008.3 1008.0
03 10.01 З 1 30 км 4/4 600 м
[Cu med, cong Ac trans]
+25.6 +24.9 96 +36 +36 очень
душно
1008.0 1008.0
06 10.01 З 2 30 км 8/3 600 м
[Cu med, cong Ac trans Ci fib]
+27.2 +24.3 84 +38 +43 очень
душно
1009.0 1009.0 +25.3
09 10.01 З 1 30 км 8/5 600 м
[Cu med, cong Ac trans Ci sp]
+29.8 +25.3 77 +44 +52 опасность
перегрева
1008.9 1009.0
12 10.01 Ю 1 25 км гроза без осадков 9/8 200 м
[Cb cap Ac trans]
+27.0 +24.1 84 +37 +40 очень
душно
1007.2 1007.0
15 10.01 ЮВ 3 30 км 8/6 600 м
[Cu med, cong Ac trans Ci sp]
+29.0 +24.7 78 +41 +42 опасность
перегрева
1007.2 1007.0
18 10.01 В 1 30 км 8/6 600 м
[Cu med, cong Ac trans Ci sp]
+26.6 +24.3 87 +37 +37 очень
душно
1008.6 1009.0 +32.5
21 10.01 штиль 0 30 км 8/6 600 м
[Cu med, cong Ac trans Ci sp]
+26.4 +25.0 92 +38 +38 очень
душно
1009.3 1009.0
06 11.01 З 1 30 км 8/8 600 м
[Cu med, cong Ac trans Ci sp]
+27.4 +25.7 90 +40 +43 очень
душно
1010.2 1010.0 +25.4
09 11.01 ЮЗ 2 30 км 8/5 600 м
[Cu med, cong Ac trans Ci sp]
+30.4 +25.0 73 +44 +52 опасность
перегрева
1009.4 1009.0
12 11.01 ЮВ 2 30 км в посл. час ливневой дождь 8/6 600 м
[Cu med, cong Ac trans Ci fib]
+31.4 +24.3 66 +44 +48 опасность
перегрева
1007.2 1007.0 5
15 11.01 В 3 30 км 9/5 600 м
[Cu med, cong Ac trans Ci sp]
+30.0 +25.2 76 +44 +44 опасность
перегрева
1007.7 1008.0
18 11.01 В 2 30 км в посл. час ливневой дождь {морось} 9/6 600 м
[Cu med, cong Ac trans]
+26.4 +24.1 87 +37 +37 очень
душно
1010.2 1010.0 +31.4 6
21 11.01 штиль 0 25 км {морось} 9/6 300 м
[Cu med, cong Ac trans]
+26.8 +25.1 90 +39 +39 очень
душно
1010.6 1011.0
00 12.01 штиль 0 30 км {морось} 6/5 600 м
[Cu med, cong Ac trans]
+26.4 +25.0 92 +38 +38 очень
душно
1009.8 1010.0 2
03 12.01 штиль 0 30 км 5/4 600 м
[Cu med, cong Ac trans Ci sp]
+24.2 +23.3 95 +32 +32 очень
душно
1009.6 1010.0
06 12.01 СВ 1 30 км 5/4 600 м
[Cu med, cong Ac trans Ci sp]
+26.0 +24.0 89 +36 +42 очень
душно
1011.0 1011.0 +24.2 7
09 12.01 СВ 1 30 км 8/6 600 м
[Cu med, cong Ac trans Ci fib]
+30.8 +23.9 67 +42 +50 опасность
перегрева
1010.2 1010.0
12 12.01 ЮВ 2 30 км 8/8 600 м
[Cu med, cong Ci fib]
+34.0 +24.4 57 +46 +49 опасность
перегрева
1007.4 1007.0
21 12.01 штиль 0 30 км 4/3 600 м
[Cu med, cong Ac trans]
+24.8 +23.9 95 +34 +34 очень
душно
1011.5 1012.0
00 13.01 штиль 0 30 км 4/4 600 м
[Cu med, cong Ac trans]
+24.6 +23.1 91 +33 +33 очень
душно
1010.7 1011.0
03 13.01 В 1 30 км слабый ливневой дождь 6/4 300 м
[Cu med, cong Ac trans]
+24.4 +22.9 91 +32 +32 очень
душно
1009.9 1010.0
06 13.01 В 1 30 км {ливн. осадки} 9/6 600 м
[Cu med, cong Ac trans]
+25.4 +24.8 96 +36 +38 очень
душно
1010.9 1011.0 +24.5 41
09 13.01 С 5 30 км 9/6 600 м
[Cu med, cong Ac trans]
+29.6 +24.8 75 +42 +45 опасность
перегрева
1010.2 1010.0
12 13.01 В 5 30 км 9/4 600 м
[Cu med, cong Ac trans Ci fib]
+28.6 +24.9 80 +41 +44 опасность
перегрева
1007.6 1008.0
15 13.01 В 5 30 км 8/4 600 м
[Cu med, cong Ac trans Ci ing]
+30.2 +25.7 77 +45 +45 опасность
перегрева
1005.4 1005.0
18 13.01 штиль 0 30 км {ливн. осадки} 5/3 600 м
[Cu med, cong Ac trans]
+26.6 +24.9 90 +38 +38 очень
душно
1007.1 1007.0 +34.1 3
21 13.01 СЗ 1 30 км зарница 8/6 600 м
[Cb cap Ac trans]
+25.5 +23.8 90 +35 +35 очень
душно
1007.7 1008.0
00 14.01 В 1 30 км в посл. час морось 8/5 300 м
[Cu med, cong Ac trans]
+24.7 +23.5 93 +33 +33 очень
душно
1006.3 1006.0 3
03 14.01 В 2 30 км {ливн. осадки} 9/4 600 м
[Cu med, cong Ac lent Ci sp]
+25.2 +24.3 95 +35 +35 очень
душно
1006.8 1007.0
06 14.01 СВ 5 30 км {ливн. осадки} 8/3 600 м
[Cu med, cong Ac trans Ci fib]
+28.2 +25.7 86 +42 +44 опасность
перегрева
1008.0 1008.0 +24.5 7
09 14.01 С 4 30 км 8/3 600 м
[Cu med, cong Ac trans Ci fib]
+31.6 +24.8 67 +45 +51 опасность
перегрева
1006.9 1007.0
12 14.01 СВ 4 30 км 8/5 600 м
[Cu med, cong Ac trans Ci fib]
+33.8 +25.7 63 +49 +52 опасность
перегрева
1003.9 1004.0
15 14.01 В 4 9000 м гроза, ливневой дождь 9/8 200 м
[Cb cap Ac As]
+29.2 +20.8 61 +36 +37 очень
душно
1005.6 1006.0
18 14.01 В 7 25 км в посл. час морось {гроза} 10/9 200 м
[Cb cap Ac As]
+24.6 +23.7 95 +33 +33 очень
душно
1006.5 1007.0 +35.0
21 14.01 СВ 3 30 км {морось} 10/8 300 м
[Cu med, cong Ac As]
+24.8 +23.6 93 +34 +34 очень
душно
1007.9 1008.0
00 15.01 СВ 6 30 км {морось} 9/6 600 м
[Cu med, cong Ac trans]
+24.2 +23.0 93 +32 +32 очень
душно
1006.6 1007.0 1
03 15.01 штиль 0 30 км 9/4 600 м
[Cu med, cong Ac trans]
+23.8 +22.8 94 +31 +31 очень
душно
1006.4 1006.0
06 15.01 В 8 30 км 9/3 600 м
[Cu med, cong Ac inh]
+25.4 +23.4 89 +34 +35 очень
душно
1008.7 1009.0 +23.3 47
09 15.01 СВ 9 30 км 6/1 600 м
[Cu med, cong Ac trans]
+30.2 +24.5 72 +43 +44 опасность
перегрева
1007.8 1008.0
12 15.01 СВ 3 25 км в посл. час морось 9/6 300 м
[Cu med, cong Ac As]
+30.0 +26.4 81 +46 +48 опасность
перегрева
1007.3 1007.0 0.3
15 15.01 СВ 4 30 км 9/4 600 м
[Cu med, cong Ac As]
+31.0 +25.4 72 +45 +45 опасность
перегрева
1006.7 1007.0
18 15.01 З 41 30 км 4/4 600 м
[Cu med, cong Ac trans]
+28.8 +24.8 79 +41 +41 опасность
перегрева
1007.7 1008.0 +33.2
00 16.01 В 7 30 км 5/3 600 м
[Cu med, cong Ac trans Ci fib]
+26.4 +24.4 89 +37 +37 очень
душно
1008.1 1008.0
03 16.01 СВ 3 30 км 6/3 600 м
[Cu med, cong Ac trans Ci fib]
+24.8 +23.0 90 +33 +33 очень
душно
1008.2 1008.0
06 16.01 СВ 6 30 км 8/3 600 м
[Cu med, cong Ac trans Ci fib]
+28.0 +24.6 82 +40 +41 очень
душно
1009.5 1010.0 +24.2
09 16.01 С 10 30 км 8/5 600 м
[Cu med, cong Ac trans Ci fib]
+33.2 +23.5 57 +44 +45 опасность
перегрева
1008.5 1009.0
12 16.01 С 10 30 км 8/4 600 м
[Cu med, cong Ac trans Ci sp]
+34.8 +24.0 54 +47 +47 опасность
перегрева
1006.9 1007.0
15 16.01 СЗ 6 30 км 8/3 600 м
[Cu med, cong Ac trans Ci sp]
+32.4 +25.1 65 +46 +46 опасность
перегрева
1006.1 1006.0

 

Местоположение метеостанции Quelimane (Мозамбик): широта -17.88 долгота 36.88 высота над уровнем моря 16 м.

В архиве по умолчанию представлена погода в Quelimane за последнюю неделю. Архивные данные за месяц целиком и за предыдущие месяцы, начиная с января 2011 года, Вы можете получить, выбрав интересующий диапазон дат из раскрывающегося списка и нажав кнопку "Ввод!".

Внимание! Время в таблицах - всемирное. Для получения местного времени необходимо прибавить поправку, которая в Quelimane равна 2 ч.

Ветер - указаны скорость ветра в м/с - средняя за 10 мин, порывы в срок и между сроками (в фигурных скобках) и направление, откуда дует ветер: С - северный, СВ - северо-восточный, В - восточный, ЮВ - юго-восточный, Ю - южный, ЮЗ - юго-западный, З - западный, СЗ - северо-западный.
Видимость - горизонтальная дальность видимости в метрах или километрах. При видимости от 1 до 10 км при отсутствии осадков обычно наблюдается дымка, при ухудшении видимости до 1 км и менее - туман. В сухую погоду видимость может ухудшаться дымом, пылью или мглою.
Явления - указаны атмосферные явления, наблюдавшиеся в срок или в последний час перед сроком; фигурными скобками обозначены явления, наблюдавшиеся между сроками (за 1-3 часа до срока); квадратными скобками обозначены град или гололедные отложения с указанием их диаметра в мм.
Облачность - указаны через наклонную черту общая и нижняя облачность в баллах и высота нижней границы облаков в метрах; квадратными скобками обозначены формы облаков: Ci - перистые, Cs - перисто-слоистые, Cc - перисто-кучевые, Ac - высококучевые, As - высокослоистые, Sc - слоисто-кучевые, Ns - слоисто-дождевые, Cu - кучевые, Cb - кучево-дождевые. Подробнее классификацию облаков см. в Атласе облаков (PDF).
T - Температура воздуха - температура, измеренная на высоте 2 м над землей.
Td - Температура точки росы - температура, при понижении до которой содержащийся в воздухе водяной пар достигнет насыщения.
f - Относительная влажность воздуха - влажноcть воздуха, измеренная на высоте 2 м над землей.
Te - Эффективная температура - температура, которую ощущает одетый по сезону человек в тени. Характеристика душности погоды. При расчете учитывается влияние влажности воздуха и скорости ветра на теплоощущения человека.
Tes - Эффективная температура на солнце - температура, которую ощущает человек, с поправкой на солнечный нагрев. Характеристика знойности погоды. Зависит от высоты солнца над горизонтом, облачности и скорости ветра. Ночью, в пасмурную погоду, а также при ветре 12 м/с и более поправка равна нулю.
P - Атмосферное давление - приведенное к уровню моря атмосферное давление.
Po - Атмосферное давление - измеренное на уровне метеостанции атмосферное давление.
Tmin - Минимальная температура - минимум температуры воздуха на высоте 2 м над землей.
Tmax - Максимальная температура - максимум температуры воздуха на высоте 2 м над землей.
R - Количество осадков - Количество выпавших осадков, мм. При наведении курсора мыши на число - период времени, за который выпало указанное количество осадков.
S - Снежный покров - Высота снежного покрова, см. При наведении курсора мыши на число - состояние снежного покрова и степень покрытия местности в баллах.